Cloud_Cover
0 0 0 0 0 0 0 0 0 0 0 0 0 0 0 0 5 5 68 96 100 99 100 100 100 75 56 93 87 100 100 100 100 100 100 100 42 78 47 47 24 39 72
0 0 0 0 0 0 0 0 0 0 0 0 0 0 0 4 5 5 77 99 43 100 89 65 92 100 100 100 100 100 100 100 100 100 100 99 94 30 18 5 5 95 32
0 0 0 0 0 0 0 0 0 0 0 0 0 0 8 72 71 5 50 100 100 100 97 100 100 100 100 100 100 100 100 100 100 100 100 100 100 89 17 89 88 99 100
0 0 0 0 0 0 0 0 0 0 3 3 4 5 5 26 26 5 4 93 100 100 100 100 100 100 100 100 100 100 100 100 100 100 100 97 100 51 99 100 97 100 100
0 0 0 0 0 0 0 0 0 0 0 2 4 3 5 5 5 5 1 5 59 98 100 92 84 92 100 100 100 100 100 100 100 100 100 100 100 100 100 100 98 100 100
0 0 0 0 0 0 0 0 0 0 0 1 5 28 60 5 17 6 0 0 4 86 100 100 100 97 100 100 100 100 100 100 100 100 100 100 100 100 100 100 100 100 100
0 0 0 0 0 0 0 0 0 0 0 32 60 84 88 58 12 5 3 0 0 47 94 100 100 100 100 100 100 100 100 100 100 100 100 100 100 100 100 100 100 100 99
0 0 0 0 0 0 0 0 0 0 1 32 84 94 100 100 50 53 4 0 11 99 100 100 100 38 100 100 100 100 100 100 100 100 100 100 100 100 100 100 100 96 2
0 0 0 0 1 0 0 0 3 0 11 90 94 100 100 100 100 90 50 8 100 100 100 97 100 100 100 100 100 100 100 99 90 5 27 91 100 78 100 100 100 100 4
5 5 5 5 5 2 0 2 5 23 63 100 100 100 100 100 100 100 100 68 100 100 99 35 90 100 100 100 100 100 84 96 81 50 86 86 5 3 0 29 95 1 4
5 5 5 5 0 0 0 18 77 100 100 100 100 100 100 100 96 83 99 78 30 24 26 70 15 100 64 62 58 70 39 10 5 5 6 3 3 0 81 100 85 10 0
5 5 5 5 5 7 83 100 100 100 100 100 100 100 100 96 44 89 93 85 7 15 96 81 5 22 18 36 88 100 83 71 59 1 0 0 0 98 35 2 0 0 0
0 5 5 5 17 100 76 100 100 100 100 100 100 100 100 15 69 47 84 62 58 86 79 43 46 50 40 71 56 99 62 5 0 0 0 29 59 0 0 0 0 0 0
5 5 5 100 100 100 87 100 100 100 100 100 68 9 5 27 13 50 81 86 82 43 7 22 13 53 5 6 93 65 82 13 47 23 0 0 0 0 0 0 0 0 0
100 91 98 100 98 99 99 100 100 100 100 60 22 62 43 62 2 0 0 3 13 30 96 96 100 96 5 29 100 10 8 28 100 100 64 2 5 1 0 0 0 0 0
100 94 72 99 100 100 100 100 83 98 58 41 33 21 16 19 5 6 0 2 10 51 10 4 1 5 22 77 21 99 95 96 100 100 44 18 0 0 0 0 0 0 0
100 100 96 100 100 28 100 100 48 27 20 10 26 17 0 3 3 0 0 0 0 0 0 0 5 0 6 100 100 100 100 100 81 8 4 0 0 0 0 0 0 0 0
100 100 53 100 16 74 93 95 57 5 5 8 69 6 24 0 0 0 0 0 0 4 0 0 0 29 39 0 3 47 5 2 2 3 0 0 0 0 0 0 0 0 0
22 62 53 100 100 100 77 94 88 27 99 100 42 0 9 0 0 0 5 0 0 0 49 100 97 0 4 5 5 3 0 0 0 0 0 0 0 0 0 0 0 0 0
98 99 99 100 100 100 72 87 30 82 69 76 37 3 0 0 0 0 0 0 0 0 31 8 0 1 4 2 0 0 0 0 0 0 0 0 0 0 0 0 0 0 0
100 100 100 100 100 100 100 100 100 64 0 1 8 1 5 46 5 1 0 0 2 1 99 0 0 0 0 0 0 0 0 0 0 0 0 0 0 0 0 0 0 0 0
100 100 100 100 100 91 99 12 69 86 60 99 100 100 36 8 1 5 0 59 100 100 63 0 0 0 0 0 0 0 0 0 0 0 0 0 0 0 0 0 0 0 0
100 100 100 100 100 100 100 100 100 100 100 100 100 100 20 1 6 82 100 100 100 100 100 76 0 0 0 0 0 0 0 0 0 0 0 0 0 0 0 0 0 0 0
100 100 100 100 100 100 100 100 31 100 100 100 82 8 3 40 96 14 99 100 100 100 100 99 16 0 0 0 0 0 0 0 0 0 0 0 0 0 0 0 0 0 0
91 98 100 100 99 100 100 100 100 100 99 100 12 3 12 24 78 82 100 34 87 100 55 94 18 0 0 0 0 0 0 0 0 0 0 0 0 0 0 0 0 0 0
100 100 98 90 100 100 100 100 100 69 36 100 76 8 15 54 6 72 64 63 100 42 67 82 52 28 0 0 0 0 0 0 0 0 0 0 0 0 0 0 0 0 0